Location: Ladirat
(44.8151°N, 1.9702°E)
Time: 10:55:26
(UTC+00:00)

Cosmos 2333 - Pass Details

Date: 15 May 2026
Orbit: 828 x 864 km, 70.9° (Epoch: 7 June)

Event Time Altitude Azimuth Distance (km) Brightness Sun altitude
Rises 21:55:40 0° 332° (NNW) 3,427 8.9 -21.2°
Reaches altitude 10° 21:58:08 10° 330° (NNW) 2,493 7.8 -21.4°
Maximum altitude 22:03:50 70° 248° (WSW) 912 4.3 -21.8°
Enters shadow 22:05:39 44° 179° (S) 1,176 4.5 -22.0°
